Back to catalog

STARLINK-5621

AliveCommunicationsVLEO
NORAD 55434·PAYLOAD·🇺🇸 United States

Launched Jan 31, 2023 from Vandenberg Space Force Base

Loading…

Next Passes (next 24 hours)

TLE

FreshSource: CelesTrak SupGP

Epoch: Sep 14, 2026, 21:26 UTC

1 55434C 23014AV  26257.89354167 -.00048789  00000+0 -40893-2 0  2576
2 55434  70.0017 347.4289 0003501 271.7362 283.4604 14.98347811    16

Track STARLINK-5621 in real time with AllMySat

Download on the App Store